TimeCDT,TemperatureF,Dew PointF,Humidity,Sea Level PressureIn,VisibilityMPH,Wind Direction,Wind SpeedMPH,Gust SpeedMPH,PrecipitationIn,Events,Conditions,WindDirDegrees,DateUTC
12:53 AM,84.0,63.0,49,29.88,10.0,South,5.8,-,N/A,,Clear,170,2013-08-06 05:53:00
1:53 AM,84.9,64.9,51,29.89,10.0,South,6.9,-,N/A,,Clear,190,2013-08-06 06:53:00
2:53 AM,84.0,66.9,56,29.88,10.0,South,6.9,-,N/A,,Clear,190,2013-08-06 07:53:00
3:53 AM,82.9,66.9,58,29.88,10.0,South,9.2,-,N/A,,Clear,190,2013-08-06 08:53:00
4:53 AM,81.0,68.0,65,29.87,10.0,SSW,5.8,-,N/A,,Clear,200,2013-08-06 09:53:00
5:53 AM,80.1,69.1,69,29.88,10.0,South,6.9,-,N/A,,Clear,190,2013-08-06 10:53:00
6:53 AM,78.1,70.0,76,29.89,10.0,South,6.9,-,N/A,,Clear,190,2013-08-06 11:53:00
7:53 AM,81.0,71.1,72,29.90,10.0,SSW,10.4,-,N/A,,Clear,200,2013-08-06 12:53:00
8:53 AM,82.9,71.1,67,29.91,10.0,SSW,10.4,-,N/A,,Clear,200,2013-08-06 13:53:00
9:53 AM,88.0,69.1,53,29.92,10.0,SSW,11.5,20.7,N/A,,Clear,210,2013-08-06 14:53:00
10:53 AM,91.9,68.0,45,29.91,10.0,South,10.4,17.3,N/A,,Clear,190,2013-08-06 15:53:00
11:53 AM,95.0,66.9,40,29.90,10.0,South,15.0,19.6,N/A,,Clear,180,2013-08-06 16:53:00
12:53 PM,98.1,66.0,35,29.89,10.0,South,9.2,20.7,N/A,,Clear,190,2013-08-06 17:53:00
1:53 PM,100.9,64.0,30,29.86,10.0,SSW,12.7,-,N/A,,Clear,200,2013-08-06 18:53:00
2:53 PM,102.9,64.9,29,29.84,10.0,South,12.7,16.1,N/A,,Clear,180,2013-08-06 19:53:00
3:53 PM,102.9,64.0,28,29.83,10.0,SSE,9.2,20.7,N/A,,Partly Cloudy,160,2013-08-06 20:53:00
4:53 PM,102.0,62.1,27,29.82,10.0,South,9.2,-,N/A,,Clear,170,2013-08-06 21:53:00
5:53 PM,100.9,62.1,28,29.80,10.0,South,11.5,-,N/A,,Partly Cloudy,170,2013-08-06 22:53:00
6:53 PM,100.9,62.1,28,29.78,10.0,South,15.0,20.7,N/A,,Clear,170,2013-08-06 23:53:00
7:53 PM,98.1,62.1,30,29.78,10.0,SSE,9.2,-,N/A,,Clear,160,2013-08-07 00:53:00
8:53 PM,93.9,61.0,33,29.79,10.0,Calm,Calm,-,N/A,,Clear,0,2013-08-07 01:53:00
9:53 PM,90.0,62.1,39,29.82,10.0,SE,4.6,-,N/A,,Clear,140,2013-08-07 02:53:00
10:53 PM,88.0,62.1,42,29.84,10.0,SSE,3.5,-,N/A,,Clear,150,2013-08-07 03:53:00
11:53 PM,87.1,63.0,44,29.84,10.0,SSE,5.8,-,N/A,,Clear,160,2013-08-07 04:53:00